Temp
-17 -17 -17 -16 -16 -16 -15 -15 -14 -13 -12 -11 -11 -10 -10 -10 -10 -9 -9 -9 -9 -9 -8 -8 -8 -8 -8 -9 -9 -9 -9 -9 -9 -9 -9 -9 -9 -9 -9 -9 -9 -10 -10 -10 -10
-18 -16 -16 -15 -16 -15 -15 -15 -14 -13 -12 -11 -10 -10 -10 -10 -10 -10 -9 -9 -9 -9 -9 -9 -9 -9 -9 -9 -9 -9 -9 -9 -9 -9 -9 -9 -8 -9 -9 -9 -9 -10 -10 -11 -11
-15 -15 -15 -15 -15 -15 -15 -14 -13 -12 -11 -11 -10 -10 -10 -10 -10 -10 -10 -9 -9 -9 -9 -9 -9 -9 -9 -9 -9 -9 -9 -9 -9 -9 -9 -9 -9 -9 -9 -10 -9 -9 -10 -10 -11
-14 -15 -15 -15 -15 -15 -14 -14 -13 -12 -11 -11 -10 -10 -10 -10 -10 -10 -9 -9 -9 -9 -10 -10 -9 -9 -9 -9 -9 -9 -9 -9 -9 -9 -9 -9 -9 -9 -8 -9 -9 -10 -10 -11 -11
-15 -15 -15 -15 -15 -14 -14 -13 -12 -12 -11 -11 -11 -10 -10 -10 -10 -10 -9 -9 -10 -10 -10 -9 -9 -9 -9 -9 -9 -9 -9 -9 -9 -8 -8 -8 -8 -8 -9 -9 -9 -10 -11 -11 -12
-14 -15 -15 -14 -14 -14 -13 -13 -12 -11 -11 -11 -11 -10 -10 -10 -10 -10 -10 -10 -10 -9 -9 -9 -9 -10 -9 -9 -9 -9 -9 -9 -8 -8 -8 -8 -8 -8 -9 -9 -9 -10 -10 -11 -12
-14 -14 -14 -14 -13 -13 -12 -12 -11 -11 -11 -11 -10 -10 -11 -11 -11 -10 -10 -10 -10 -9 -10 -10 -9 -9 -9 -9 -9 -9 -8 -8 -8 -8 -8 -8 -8 -8 -9 -9 -9 -9 -10 -11 -12
-12 -12 -12 -12 -12 -12 -12 -12 -12 -11 -11 -11 -11 -11 -10 -10 -10 -10 -10 -10 -10 -10 -9 -9 -9 -9 -9 -9 -9 -8 -8 -8 -8 -8 -8 -8 -8 -9 -9 -9 -9 -10 -10 -11 -12
-12 -12 -12 -11 -11 -11 -11 -11 -11 -11 -11 -11 -11 -10 -10 -10 -10 -10 -10 -10 -10 -9 -9 -9 -9 -9 -9 -9 -8 -8 -8 -8 -8 -8 -8 -9 -9 -9 -9 -9 -10 -10 -10 -11 -11
-11 -11 -11 -11 -11 -11 -11 -11 -11 -11 -11 -11 -11 -10 -10 -10 -10 -10 -10 -10 -10 -9 -9 -9 -9 -9 -8 -8 -8 -8 -8 -8 -8 -8 -8 -8 -9 -9 -9 -10 -10 -10 -10 -11 -11
-11 -11 -11 -11 -11 -11 -11 -11 -11 -11 -11 -11 -10 -10 -10 -10 -10 -10 -10 -10 -9 -9 -9 -9 -9 -9 -8 -8 -8 -8 -8 -8 -8 -9 -9 -9 -9 -9 -10 -10 -10 -10 -10 -11 -11
-10 -10 -11 -11 -11 -11 -11 -11 -11 -10 -10 -10 -10 -10 -10 -10 -10 -10 -10 -9 -9 -9 -9 -9 -9 -9 -8 -8 -8 -8 -8 -9 -9 -9 -9 -9 -9 -10 -10 -10 -10 -10 -11 -11 -11
-11 -10 -10 -10 -10 -10 -10 -11 -11 -11 -11 -10 -10 -10 -10 -10 -10 -10 -10 -10 -10 -10 -9 -9 -9 -9 -9 -9 -8 -8 -9 -9 -9 -9 -9 -9 -10 -10 -10 -10 -11 -11 -11 -11 -11
-10 -11 -11 -10 -10 -10 -10 -10 -10 -10 -10 -10 -10 -10 -10 -10 -10 -10 -10 -10 -9 -10 -9 -9 -9 -9 -9 -9 -9 -9 -9 -9 -9 -9 -10 -10 -10 -10 -10 -11 -11 -12 -12 -12 -12
-11 -11 -10 -11 -11 -11 -11 -10 -10 -10 -11 -11 -11 -11 -11 -11 -11 -10 -10 -10 -10 -10 -9 -9 -9 -9 -9 -9 -9 -9 -9 -9 -9 -9 -10 -10 -10 -10 -11 -11 -11 -12 -12 -12 -12
-11 -11 -11 -11 -11 -11 -11 -10 -10 -10 -11 -11 -11 -11 -11 -11 -11 -10 -10 -10 -10 -9 -9 -9 -9 -9 -9 -9 -10 -10 -10 -10 -10 -10 -10 -10 -10 -11 -11 -11 -12 -12 -12 -12 -12
-11 -11 -11 -11 -11 -11 -11 -11 -11 -11 -11 -11 -11 -11 -11 -11 -10 -10 -10 -10 -10 -10 -10 -10 -10 -10 -10 -10 -10 -10 -10 -10 -10 -10 -10 -11 -10 -11 -11 -11 -12 -12 -13 -13 -13
-12 -12 -12 -12 -11 -11 -11 -11 -11 -11 -11 -11 -11 -11 -11 -11 -10 -10 -10 -10 -10 -10 -10 -10 -10 -10 -10 -10 -10 -10 -11 -11 -11 -11 -10 -11 -11 -12 -12 -12 -12 -12 -12 -13 -13
-12 -12 -12 -12 -12 -12 -12 -12 -12 -12 -11 -11 -11 -11 -11 -11 -11 -10 -10 -10 -11 -11 -11 -10 -10 -11 -11 -11 -11 -11 -11 -11 -12 -12 -11 -11 -11 -12 -12 -13 -12 -12 -13 -13 -13
-12 -12 -12 -13 -12 -13 -13 -13 -13 -13 -12 -12 -12 -12 -12 -12 -11 -11 -11 -11 -11 -11 -11 -11 -11 -12 -12 -12 -12 -12 -12 -12 -12 -12 -12 -12 -12 -12 -12 -13 -13 -13 -13 -13 -14
-13 -13 -13 -13 -13 -13 -13 -13 -13 -13 -13 -13 -13 -13 -13 -13 -13 -13 -12 -12 -12 -12 -12 -12 -12 -12 -12 -12 -12 -13 -14 -14 -14 -14 -14 -13 -13 -14 -13 -14 -14 -13 -13 -13 -14
-13 -13 -13 -13 -13 -13 -13 -13 -13 -14 -14 -14 -14 -14 -14 -14 -13 -13 -13 -14 -13 -13 -13 -13 -13 -13 -14 -14 -14 -15 -15 -15 -14 -14 -15 -15 -13 -14 -14 -14 -14 -14 -14 -13 -14
-13 -13 -13 -13 -13 -14 -14 -14 -14 -14 -14 -14 -14 -14 -14 -14 -13 -13 -13 -14 -14 -14 -14 -14 -13 -13 -14 -14 -14 -14 -15 -15 -15 -15 -15 -15 -14 -14 -14 -14 -14 -13 -13 -13 -14
-14 -14 -14 -14 -14 -14 -14 -14 -14 -14 -14 -14 -14 -14 -14 -14 -14 -14 -14 -13 -14 -14 -14 -14 -14 -14 -14 -15 -15 -15 -16 -16 -15 -15 -15 -15 -14 -16 -14 -14 -13 -13 -13 -13 -13
-14 -14 -14 -14 -14 -14 -14 -14 -14 -14 -14 -14 -14 -14 -14 -14 -14 -14 -14 -14 -14 -14 -14 -14 -14 -14 -15 -15 -15 -15 -15 -16 -16 -16 -15 -15 -15 -15 -15 -14 -14 -14 -14 -14 -13
-14 -14 -14 -14 -15 -15 -15 -15 -15 -14 -15 -15 -15 -14 -15 -15 -14 -14 -14 -14 -14 -14 -14 -15 -14 -15 -14 -15 -15 -14 -15 -15 -16 -15 -15 -15 -15 -15 -14 -14 -15 -16 -15 -15 -15
-14 -14 -14 -14 -15 -15 -15 -15 -14 -15 -15 -15 -15 -14 -15 -15 -15 -14 -14 -14 -15 -15 -15 -15 -16 -16 -14 -15 -15 -14 -15 -16 -15 -16 -15 -15 -16 -16 -16 -15 -15 -15 -16 -15 -15
Height
5684 5686 5687 5691 5697 5704 5714 5723 5736 5748 5761 5773 5784 5792 5800 5808 5815 5821 5826 5832 5836 5840 5843 5846 5847 5849 5849 5850 5852 5853 5853 5852 5851 5850 5850 5847 5845 5843 5840 5837 5833 5829 5824 5820 5814
5696 5698 5702 5706 5711 5718 5726 5735 5745 5756 5768 5779 5789 5797 5804 5810 5816 5822 5828 5832 5836 5839 5842 5844 5845 5846 5848 5850 5850 5850 5849 5848 5847 5846 5845 5842 5841 5839 5837 5832 5827 5822 5816 5810 5803
5711 5713 5716 5720 5725 5731 5738 5747 5756 5766 5776 5785 5794 5801 5808 5813 5819 5823 5828 5832 5835 5838 5840 5842 5844 5846 5847 5847 5847 5847 5846 5844 5844 5842 5840 5839 5836 5832 5829 5826 5820 5816 5810 5803 5794
5729 5729 5731 5734 5738 5744 5751 5758 5765 5774 5782 5790 5799 5806 5811 5816 5822 5825 5828 5832 5835 5837 5839 5842 5844 5845 5845 5844 5844 5843 5843 5842 5841 5839 5836 5834 5832 5829 5824 5820 5815 5809 5802 5795 5786
5745 5745 5746 5749 5753 5757 5762 5768 5775 5782 5789 5797 5803 5809 5815 5819 5823 5826 5830 5832 5834 5836 5839 5841 5842 5842 5841 5841 5841 5841 5841 5839 5837 5835 5833 5829 5826 5824 5820 5814 5808 5801 5794 5787 5778
5758 5759 5761 5763 5766 5769 5774 5779 5785 5791 5798 5804 5809 5813 5818 5822 5824 5827 5829 5832 5835 5837 5838 5839 5839 5839 5839 5839 5839 5838 5837 5836 5833 5830 5828 5825 5822 5819 5815 5809 5802 5795 5786 5776 5767
5772 5773 5775 5777 5780 5782 5786 5790 5795 5799 5804 5809 5813 5817 5821 5824 5826 5828 5830 5832 5834 5835 5836 5837 5837 5837 5838 5837 5836 5835 5834 5832 5829 5827 5825 5821 5818 5815 5810 5804 5796 5787 5778 5768 5757
5782 5784 5787 5788 5790 5793 5795 5799 5802 5806 5810 5813 5817 5821 5823 5826 5827 5828 5830 5831 5833 5833 5834 5835 5835 5835 5835 5834 5833 5832 5830 5828 5826 5825 5823 5819 5812 5808 5803 5797 5790 5781 5773 5761 5748
5794 5794 5795 5797 5799 5801 5804 5807 5809 5812 5815 5818 5820 5822 5825 5826 5827 5828 5830 5831 5832 5833 5833 5832 5833 5833 5832 5831 5831 5828 5826 5825 5823 5819 5814 5813 5809 5804 5797 5789 5783 5777 5767 5755 5740
5805 5804 5805 5805 5806 5808 5810 5812 5814 5816 5818 5820 5822 5825 5826 5827 5828 5829 5830 5830 5831 5831 5831 5831 5831 5830 5829 5828 5826 5824 5823 5820 5816 5815 5810 5806 5803 5797 5791 5785 5778 5771 5761 5749 5736
5812 5812 5812 5812 5813 5814 5815 5816 5819 5821 5822 5823 5825 5825 5826 5827 5828 5828 5829 5829 5829 5828 5828 5829 5828 5826 5825 5823 5821 5820 5819 5816 5812 5808 5806 5801 5796 5792 5786 5781 5774 5765 5756 5744 5733
5818 5817 5818 5817 5817 5818 5819 5820 5821 5823 5824 5824 5825 5826 5826 5826 5827 5827 5827 5827 5827 5826 5826 5826 5824 5822 5820 5819 5817 5815 5813 5810 5807 5803 5799 5794 5791 5787 5781 5775 5767 5759 5751 5741 5731
5823 5823 5822 5822 5822 5822 5823 5823 5824 5824 5825 5826 5826 5826 5826 5826 5825 5825 5826 5825 5824 5823 5822 5821 5819 5818 5817 5815 5812 5809 5806 5804 5801 5798 5792 5787 5784 5780 5773 5767 5760 5753 5746 5739 5730
5827 5826 5825 5825 5826 5825 5824 5825 5825 5825 5826 5827 5826 5825 5825 5824 5824 5823 5822 5822 5820 5819 5818 5817 5815 5813 5811 5809 5807 5804 5800 5797 5793 5791 5787 5782 5776 5772 5765 5760 5755 5749 5742 5736 5728
5829 5828 5828 5827 5826 5825 5825 5825 5825 5825 5825 5827 5824 5823 5822 5822 5821 5819 5818 5817 5815 5814 5814 5812 5809 5807 5804 5802 5799 5797 5792 5789 5785 5781 5779 5775 5770 5767 5760 5755 5749 5744 5738 5732 5725
5827 5827 5827 5827 5827 5826 5825 5824 5824 5825 5822 5822 5821 5820 5819 5818 5817 5815 5814 5812 5811 5809 5807 5806 5803 5801 5798 5795 5792 5789 5785 5780 5777 5775 5772 5768 5764 5762 5754 5748 5743 5738 5733 5728 5722
5826 5825 5824 5824 5824 5823 5823 5822 5823 5820 5821 5819 5817 5816 5815 5813 5812 5810 5809 5807 5806 5804 5801 5799 5796 5794 5791 5788 5784 5781 5777 5772 5770 5766 5764 5758 5754 5751 5747 5742 5737 5733 5727 5723 5719
5824 5822 5821 5820 5820 5819 5818 5818 5817 5816 5814 5814 5812 5811 5809 5808 5806 5805 5804 5802 5800 5798 5796 5794 5793 5789 5785 5781 5777 5773 5770 5765 5759 5757 5755 5751 5745 5743 5740 5737 5730 5727 5724 5719 5715
5820 5819 5819 5817 5816 5815 5815 5813 5811 5810 5809 5807 5806 5805 5803 5801 5799 5797 5796 5794 5791 5790 5788 5784 5784 5780 5776 5773 5769 5764 5761 5757 5751 5747 5744 5743 5740 5734 5729 5727 5723 5719 5715 5712 5708
5815 5814 5813 5812 5811 5809 5808 5807 5805 5803 5802 5800 5799 5798 5795 5794 5792 5790 5789 5787 5784 5781 5778 5775 5773 5772 5767 5764 5761 5757 5753 5749 5743 5735 5731 5731 5731 5727 5716 5716 5715 5711 5707 5705 5701
5811 5809 5808 5807 5806 5804 5803 5801 5798 5795 5794 5793 5791 5789 5787 5785 5784 5781 5780 5777 5774 5771 5769 5766 5764 5763 5759 5754 5749 5747 5744 5739 5735 5729 5722 5716 5726 5716 5709 5701 5701 5700 5699 5697 5695
5803 5803 5801 5800 5800 5797 5795 5793 5792 5790 5787 5786 5783 5781 5778 5775 5774 5772 5771 5768 5764 5762 5758 5755 5748 5749 5749 5742 5737 5735 5733 5728 5722 5720 5717 5707 5713 5711 5702 5694 5695 5693 5692 5690 5687
5794 5794 5792 5792 5791 5789 5787 5785 5783 5782 5779 5777 5774 5772 5769 5767 5764 5761 5759 5757 5754 5751 5746 5743 5737 5735 5736 5734 5729 5726 5723 5719 5713 5709 5711 5699 5703 5698 5694 5688 5687 5685 5682 5681 5678
5786 5784 5783 5781 5780 5778 5777 5776 5773 5772 5770 5768 5765 5763 5760 5759 5754 5752 5747 5745 5744 5741 5737 5731 5731 5728 5725 5722 5716 5714 5716 5712 5703 5698 5695 5695 5686 5689 5683 5680 5678 5676 5672 5669 5665
5775 5773 5771 5770 5770 5767 5766 5764 5762 5760 5760 5756 5755 5752 5749 5748 5746 5743 5739 5735 5733 5729 5727 5722 5720 5718 5716 5714 5710 5705 5706 5703 5697 5693 5683 5686 5675 5674 5670 5668 5667 5665 5660 5656 5655
5762 5762 5761 5758 5757 5756 5754 5753 5751 5748 5747 5746 5744 5741 5739 5737 5734 5732 5729 5726 5722 5716 5712 5709 5705 5704 5702 5702 5697 5694 5696 5688 5684 5681 5676 5669 5667 5658 5660 5658 5655 5650 5647 5643 5640
5751 5750 5749 5748 5747 5745 5743 5741 5739 5739 5738 5735 5731 5729 5728 5727 5723 5719 5715 5714 5709 5706 5701 5697 5693 5690 5688 5686 5683 5681 5677 5673 5669 5665 5660 5656 5651 5647 5645 5643 5640 5635 5632 5629 5627
Wind_Speed
37 43 39 46 51 55 51 53 52 50 48 46 44 41 41 41 39 38 34 30 26 23 20 18 17 17 18 18 17 19 22 20 20 22 23 20 20 25 26 30 32 35 37 40 41
29 43 48 50 50 51 51 51 49 48 45 44 41 39 39 38 36 32 29 27 25 21 20 18 19 19 17 16 17 16 15 19 20 15 13 18 23 24 25 29 32 34 36 39 42
44 48 44 48 49 49 49 47 46 44 43 41 38 36 35 32 30 30 28 25 23 20 19 19 17 14 14 13 12 15 16 12 7 13 17 19 23 29 31 32 38 38 38 40 43
42 41 44 44 46 47 46 43 43 42 41 39 36 35 31 28 26 26 25 23 21 20 17 14 12 12 8 10 13 11 4 8 13 14 18 22 25 29 34 37 40 41 42 41 43
38 39 41 42 42 41 39 39 40 38 36 35 32 29 26 23 22 22 22 21 18 13 9 9 7 5 8 8 4 4 8 11 14 16 20 25 28 30 34 38 41 43 44 42 44
42 41 39 38 36 35 34 34 33 32 30 28 26 25 21 20 19 19 16 11 8 8 5 3 4 5 1 1 4 7 10 13 16 19 21 25 29 32 36 40 43 46 49 49 45
40 37 34 32 32 31 31 30 29 28 26 25 23 21 18 15 9 9 7 7 5 3 2 3 2 3 3 4 8 10 12 15 18 21 25 28 31 33 37 39 43 49 52 51 53
40 36 32 29 27 26 25 24 23 22 20 17 15 13 11 11 10 9 7 6 4 3 4 6 4 3 5 7 10 12 14 18 21 24 25 28 35 37 39 41 44 48 52 53 57
34 34 34 32 29 26 22 20 18 16 15 13 12 11 11 10 10 9 7 5 6 8 6 3 2 5 8 10 11 14 17 21 24 27 32 32 34 37 39 42 45 47 51 54 57
30 30 30 29 29 27 24 21 19 17 16 15 14 14 10 9 8 7 7 8 7 5 2 3 5 8 10 12 14 15 20 25 29 32 35 38 38 38 40 42 45 46 49 54 57
23 21 21 21 21 20 18 17 16 13 12 11 10 10 7 7 8 8 8 6 5 4 5 6 9 11 13 16 19 22 25 27 30 34 35 38 40 39 41 40 43 44 47 51 54
22 19 16 15 14 13 13 12 11 11 10 10 9 8 9 8 7 7 7 6 7 8 8 10 12 15 18 21 25 27 29 31 33 35 38 40 40 39 41 42 44 44 44 47 51
18 17 16 14 12 10 7 6 6 5 4 6 6 5 5 5 5 5 6 8 8 9 11 14 17 20 23 26 29 32 32 33 35 36 41 43 41 40 44 43 42 42 42 45 46
19 17 13 11 10 9 8 6 5 4 2 1 2 2 3 4 5 8 9 10 11 14 17 19 22 25 28 30 31 33 35 37 39 40 41 40 42 41 41 39 39 37 38 41 42
12 12 13 12 11 8 5 4 2 0 2 3 3 5 7 8 9 11 13 15 17 19 21 24 26 29 31 33 35 37 39 41 42 41 38 37 38 33 36 34 34 37 36 37 37
11 12 10 9 8 8 7 6 4 3 3 5 6 8 10 12 13 15 16 19 21 23 25 26 29 31 33 34 35 36 36 37 37 38 36 34 35 32 32 35 34 36 35 31 33
9 10 12 14 12 9 9 9 9 8 7 8 10 11 13 15 16 16 18 20 21 22 24 25 28 29 31 33 34 35 37 39 40 40 38 38 39 34 33 33 35 31 33 30 28
14 15 14 12 14 16 16 15 16 16 16 16 17 18 19 20 21 23 23 25 26 28 29 29 29 31 32 34 36 37 38 40 43 41 41 39 41 38 35 33 34 33 28 28 26
16 17 18 21 20 18 18 20 21 22 23 25 25 25 26 27 29 29 29 30 31 32 33 35 33 35 37 37 39 41 41 42 44 45 46 43 41 43 41 31 34 37 29 28 29
20 22 23 21 22 23 23 23 24 25 26 27 29 30 32 32 34 35 35 36 37 37 37 39 39 37 40 42 44 44 44 43 45 48 48 46 39 38 45 39 35 32 33 28 28
24 26 26 26 25 26 28 28 27 29 28 29 30 31 32 33 35 37 38 41 42 43 44 46 47 45 45 46 46 44 41 41 42 42 45 48 36 42 43 44 41 40 37 34 30
28 30 31 29 28 30 30 31 31 32 33 33 34 36 37 39 40 41 41 42 45 45 47 47 51 47 42 43 44 38 35 37 40 38 36 43 40 35 40 44 42 41 37 34 32
31 31 34 33 33 32 34 35 37 36 37 37 38 39 40 41 43 42 44 44 44 44 46 45 47 46 39 38 38 36 33 35 40 39 35 45 39 37 39 43 42 42 42 38 37
36 38 37 35 37 39 40 38 38 37 39 41 43 43 44 43 45 46 48 46 45 46 46 48 45 44 42 38 40 40 36 39 44 46 47 43 47 39 45 46 45 43 41 38 38
43 40 39 40 40 40 40 42 43 45 42 43 43 44 45 44 44 45 45 47 47 46 47 48 48 46 42 42 43 46 43 43 47 47 53 50 54 54 54 52 48 43 42 43 43
45 41 39 40 39 39 41 41 42 43 44 43 44 47 45 45 45 45 46 47 49 49 49 49 49 46 46 44 47 50 48 52 53 54 55 59 58 60 57 55 52 49 50 49 46
47 46 44 40 38 38 39 41 43 41 41 43 45 47 49 50 51 53 55 52 52 52 53 54 50 51 55 53 54 56 56 59 60 61 62 61 61 61 59 57 57 58 56 57 57
Wind_Direction
82 101 108 121 130 131 138 139 143 147 154 162 168 171 176 180 184 188 193 198 203 201 206 214 223 235 243 251 271 290 302 312 316 316 319 328 333 339 337 333 324 319 315 317 320
87 110 115 115 127 128 135 138 140 144 152 159 164 170 173 179 183 186 188 190 194 197 209 221 232 243 261 286 301 308 321 318 318 332 341 342 348 339 337 329 328 326 324 323 322
99 107 111 115 119 124 128 133 137 142 149 155 162 169 174 177 177 179 182 188 193 204 219 231 247 271 297 302 314 319 318 325 344 340 352 344 344 342 341 335 334 332 327 321 319
94 99 107 113 118 123 128 133 136 144 150 156 164 171 173 174 180 182 186 193 201 215 230 250 278 285 306 318 314 320 335 335 350 350 343 339 343 341 339 335 332 332 330 328 326
90 99 104 110 116 122 126 130 137 145 151 158 164 170 174 180 184 187 195 203 215 234 263 272 270 298 314 313 328 322 340 341 338 343 343 341 342 337 334 331 330 334 332 330 331
87 91 97 104 109 114 120 127 135 143 150 156 167 172 178 184 189 198 207 218 248 249 242 252 287 298 313 273 303 336 335 334 337 341 339 333 333 333 331 331 333 332 334 337 337
76 83 87 96 104 113 120 127 136 143 150 161 168 174 185 186 198 200 207 204 197 184 217 267 216 163 224 311 328 335 332 333 336 333 326 326 324 323 325 330 334 334 335 339 341
84 81 82 89 96 105 116 127 137 144 152 158 163 171 179 181 179 175 160 156 175 197 187 180 182 258 316 322 330 329 332 330 321 309 312 319 322 322 326 331 333 336 333 339 344
80 87 90 87 89 95 102 109 118 129 137 143 147 149 162 154 149 155 162 175 177 172 182 210 277 306 318 324 322 326 321 308 301 311 315 319 320 322 327 333 336 332 334 338 346
80 83 86 91 97 98 98 99 104 110 118 127 135 145 153 158 169 186 186 181 173 188 233 274 295 302 315 311 312 308 299 303 311 313 318 318 318 325 330 332 332 331 335 338 343
68 75 85 91 94 96 100 108 114 118 121 127 144 151 161 174 182 180 182 190 210 235 265 273 292 303 303 308 304 303 304 305 311 315 315 315 321 326 327 327 325 332 336 339 342
67 69 73 78 85 94 103 108 112 120 130 135 146 168 183 185 189 204 213 228 242 259 277 288 297 307 309 308 307 305 308 311 311 311 316 317 318 323 321 320 325 332 337 339 341
74 73 71 71 79 91 98 101 119 135 150 177 189 193 200 215 225 254 262 265 280 291 294 303 308 308 308 307 307 307 307 307 307 309 313 313 315 317 321 323 325 331 336 338 340
54 61 71 77 79 80 82 92 101 110 115 143 229 269 276 305 283 296 302 303 302 305 308 308 305 304 303 304 303 304 304 305 306 307 310 313 317 322 322 324 324 330 332 334 339
40 44 42 43 48 67 80 96 102 179 306 280 286 290 298 304 308 307 308 308 310 309 305 304 304 304 303 303 303 302 303 304 306 309 313 315 314 321 320 324 327 327 329 331 335
2 2 2 4 10 14 22 20 10 336 309 304 313 309 309 309 309 311 312 309 306 305 303 303 302 301 301 302 302 303 306 309 310 309 311 313 314 321 322 326 327 325 325 330 329
352 347 335 330 328 323 320 318 319 317 312 307 307 309 310 309 309 308 307 307 307 306 306 307 305 305 305 306 306 306 307 307 307 309 312 314 314 320 319 318 320 323 323 326 323
327 332 329 319 309 306 306 302 299 300 298 299 299 300 302 300 300 301 300 302 303 302 299 298 299 300 301 302 303 304 305 307 307 308 309 310 312 315 314 314 313 312 316 316 314
309 312 308 313 309 300 295 292 295 296 296 295 295 294 294 296 295 294 293 295 294 294 295 297 297 300 299 301 302 302 305 306 307 305 307 307 309 310 314 310 311 310 310 314 313
299 302 300 302 305 306 300 298 293 290 291 291 292 292 292 293 292 292 292 294 295 296 296 296 296 299 302 303 303 303 304 304 303 303 303 304 308 310 304 309 306 299 300 307 306
290 295 294 291 292 298 296 295 297 295 293 291 289 290 291 292 294 295 296 296 296 297 297 298 297 298 297 297 297 297 299 298 297 300 304 303 309 309 307 306 306 303 303 304 304
290 294 291 286 286 288 293 294 294 292 294 296 294 293 292 293 293 293 296 296 297 299 299 299 297 299 299 298 296 298 299 297 297 301 308 305 320 317 306 301 304 305 305 304 303
290 287 293 288 285 282 289 292 293 291 289 289 289 290 291 293 294 296 297 296 299 300 301 303 303 305 303 299 298 298 302 303 300 299 309 299 313 310 304 305 309 308 307 304 300
291 289 288 286 285 288 287 290 290 289 291 289 290 289 290 292 292 296 297 298 296 295 296 296 297 299 300 299 297 297 299 301 296 298 297 308 300 304 302 303 304 307 303 301 296
296 295 291 289 287 286 286 289 292 291 290 291 291 291 293 294 293 300 300 296 295 296 292 290 292 290 288 291 291 290 293 293 291 294 291 296 295 300 301 302 306 306 297 292 293
298 296 297 292 292 291 291 292 294 295 293 291 292 294 295 296 299 300 299 304 304 300 297 293 291 288 286 286 288 288 291 287 288 289 290 288 293 295 294 296 300 299 297 295 293
293 292 293 294 292 292 293 294 296 294 292 293 294 294 296 297 296 298 299 299 297 296 295 292 287 287 290 289 285 288 287 287 286 287 286 287 287 291 293 291 292 292 292 292 295